Location: Pedholt
(56.0260°N, 10.2097°E)
Time: 02:58:07
(UTC+00:00)

SR - Pass Details

Date: 31 July 2021
Orbit: 581 x 873 km, 66.7° (Epoch: 27 September)

Event Time Altitude Azimuth Distance (km) Brightness Sun altitude
Rises 11:28:28 0° 307° (NW) 3,276 ? 52.1°
Reaches altitude 10° 11:31:13 10° 317° (NW) 2,296 ? 52.1°
Maximum altitude 11:35:52 31° 20° (NNE) 1,236 ? 52.1°
Drops below altitude 10° 11:40:11 10° 83° (E) 2,116 ? 52.0°
Sets 11:42:38 0° 94° (E) 2,980 ? 52.0°
